Weather History for Beaver Island, MI

Change the Weather History Date:

Saturday, October 15, 2011

  Actual Average Record
Temperature  
Mean Temperature 48 °F -  
Max Temperature 51 °F 55 °F 79 °F (1968)
Min Temperature 44 °F 42 °F 28 °F (1978)
Degree Days  
Heating Degree Days 18    
Moisture  
Dew Point 39 °F    
Average Humidity 75    
Maximum Humidity 93    
Minimum Humidity 50    
Precipitation  
Precipitation 0.00 in - - ()
Sea Level Pressure  
Sea Level Pressure 29.40 in    
Wind  
Wind Speed 17 mph (WNW)    
Max Wind Speed 22 mph    
Max Gust Speed 33 mph    
Visibility 9 miles    
Events Rain    
Averages and records for this station are not official NWS values.
T = Trace of Precipitation, MM = Missing Value Source: NWS Daily Summary

Daily Weather History Graph

Daily Weather History Graph

Search for Another Location

Airport:

Trip Planner

Search our weather history database for the weather conditions in past years. The results will help you decide how hot, cold, wet, or windy it might be!

Date:

Astronomy

Oct. 15, 2011 Rise Set
Actual Time 7:58 AM EDT 6:56 PM EDT
Civil Twilight 7:28 AM EDT 7:26 PM EDT
Nautical Twilight 6:53 AM EDT 8:01 PM EDT
Astronomical Twilight 6:19 AM EDT 8:35 PM EDT
Moon 8:40 PM EDT (10/15) 11:34 AM EDT (10/15)
Length of Visible Light 11h 58m
Length of Day
10h 58m
Waning Gibbous, 89% of the Moon is Illuminated
Oct 15
Waning Gibbous
Oct 19
Last Quarter
Oct 26
New
Nov 2
First Quarter
Nov 10
Full

Hourly Weather History & Observations

Time (EDT) Temp. Windchill Dew Point Humidity Pressure Visibility Wind Dir Wind Speed Gust Speed Precip Events Conditions
12:15 AM 46.4 °F 39.8 °F 41.0 °F 81% 29.30 in 10.0 mi West 16.1 mph 27.6 mph N/A Rain Light Rain
12:35 AM 46.4 °F 39.5 °F 41.0 °F 81% 29.30 in 10.0 mi West 17.3 mph 24.2 mph N/A Rain Rain
12:55 AM 44.6 °F 37.4 °F 41.0 °F 87% 29.30 in 10.0 mi West 16.1 mph 25.3 mph N/A Rain Light Rain
1:15 AM 44.6 °F 36.9 °F 39.2 °F 81% 29.30 in 10.0 mi West 18.4 mph 26.5 mph N/A   Overcast
1:35 AM 44.6 °F 37.4 °F 39.2 °F 81% 29.29 in 10.0 mi West 16.1 mph 23.0 mph N/A   Overcast
1:55 AM 44.6 °F 38.1 °F 39.2 °F 81% 29.29 in 10.0 mi West 13.8 mph 25.3 mph N/A   Overcast
2:15 AM 44.6 °F 38.1 °F 39.2 °F 81% 29.30 in 10.0 mi West 13.8 mph 21.9 mph N/A   Overcast
2:35 AM 44.6 °F 36.9 °F 41.0 °F 87% 29.29 in 7.0 mi West 18.4 mph 26.5 mph N/A   Drizzle
2:55 AM 44.6 °F 37.8 °F 41.0 °F 87% 29.29 in 5.0 mi West 15.0 mph 24.2 mph N/A   Drizzle
3:15 AM 44.6 °F 36.6 °F 41.0 °F 87% 29.29 in 7.0 mi West 19.6 mph 29.9 mph N/A Rain Light Rain
3:34 AM 44.6 °F 37.8 °F 41.0 °F 87% 29.29 in 7.0 mi West 15.0 mph 27.6 mph N/A Rain Light Rain
3:55 AM 44.6 °F 37.8 °F 41.0 °F 87% 29.28 in 10.0 mi West 15.0 mph 25.3 mph N/A Rain Light Rain
3:56 AM 44.6 °F 37.8 °F 41.0 °F 87% 29.28 in 10.0 mi West 15.0 mph 26.5 mph N/A Rain Light Rain
4:25 AM 44.6 °F 37.8 °F 41.0 °F 87% 29.28 in 5.0 mi West 15.0 mph 25.3 mph N/A   Overcast
4:45 AM 44.6 °F 37.4 °F 41.0 °F 87% 29.28 in 7.0 mi West 16.1 mph 25.3 mph N/A   Overcast
5:05 AM 44.6 °F 37.2 °F 42.8 °F 93% 29.29 in 7.0 mi West 17.3 mph 28.8 mph N/A   Overcast
5:25 AM 44.6 °F 37.4 °F 42.8 °F 93% 29.29 in 7.0 mi West 16.1 mph 26.5 mph N/A   Overcast
5:45 AM 44.6 °F 38.1 °F 41.0 °F 87% 29.30 in 10.0 mi WNW 13.8 mph 29.9 mph N/A   Overcast
6:05 AM 44.6 °F 37.2 °F 41.0 °F 87% 29.30 in 10.0 mi WNW 17.3 mph 29.9 mph N/A   Overcast
6:25 AM 46.4 °F 38.7 °F 41.0 °F 81% 29.30 in 10.0 mi WNW 20.7 mph 33.4 mph N/A   Overcast
6:45 AM 46.4 °F 39.2 °F 41.0 °F 81% 29.30 in 10.0 mi West 18.4 mph 32.2 mph N/A   Overcast
7:05 AM 46.4 °F 39.0 °F 41.0 °F 81% 29.31 in 10.0 mi WNW 19.6 mph 26.5 mph N/A   Overcast
7:25 AM 44.6 °F 36.1 °F 41.0 °F 87% 29.32 in 10.0 mi WNW 21.9 mph 33.4 mph N/A   Overcast
7:45 AM 46.4 °F 39.2 °F 41.0 °F 81% 29.33 in 10.0 mi WNW 18.4 mph 31.1 mph N/A   Overcast
8:15 AM 44.6 °F 36.6 °F 41.0 °F 87% 29.33 in 10.0 mi WNW 19.6 mph 32.2 mph N/A Rain Light Rain
9:15 AM 44.6 °F 37.2 °F 41.0 °F 87% 29.36 in 10.0 mi WNW 17.3 mph 26.5 mph N/A Rain Rain
9:35 AM 44.6 °F 36.9 °F 41.0 °F 87% 29.37 in 7.0 mi WNW 18.4 mph 27.6 mph N/A Rain Rain
9:55 AM 44.6 °F 37.4 °F 41.0 °F 87% 29.37 in 10.0 mi West 16.1 mph 29.9 mph N/A   Overcast
10:15 AM 44.6 °F 37.8 °F 41.0 °F 87% 29.39 in 7.0 mi West 15.0 mph 29.9 mph N/A Rain Light Rain
10:35 AM 44.6 °F 36.6 °F 41.0 °F 87% 29.40 in 5.0 mi WNW 19.6 mph 31.1 mph N/A   Drizzle
10:55 AM 44.6 °F 36.9 °F 41.0 °F 87% 29.40 in 7.0 mi West 18.4 mph 26.5 mph N/A   Light Drizzle
11:15 AM 44.6 °F 36.6 °F 41.0 °F 87% 29.41 in 10.0 mi West 19.6 mph 32.2 mph N/A   Overcast
11:35 AM 44.6 °F 37.2 °F 39.2 °F 81% 29.42 in 10.0 mi WNW 17.3 mph 28.8 mph N/A   Overcast
11:55 AM 44.6 °F 36.4 °F 37.4 °F 76% 29.43 in 10.0 mi WNW 20.7 mph 33.4 mph N/A   Overcast
12:12 PM 44.6 °F 36.9 °F 37.4 °F 76% 29.44 in 10.0 mi West 18.4 mph 32.2 mph N/A   Overcast
12:35 PM 46.4 °F 39.2 °F 37.4 °F 71% 29.44 in 10.0 mi WNW 18.4 mph 33.4 mph N/A   Overcast
1:16 PM 48.2 °F - 37.4 °F 66% 29.46 in 10.0 mi West 16.1 mph 32.2 mph N/A   Overcast
1:35 PM 48.2 °F - 37.4 °F 66% 29.46 in 10.0 mi West 17.3 mph 29.9 mph N/A   Overcast
1:55 PM 50.0 °F - 37.4 °F 62% 29.47 in 10.0 mi West 21.9 mph 31.1 mph N/A   Overcast
2:15 PM 50.0 °F - 35.6 °F 58% 29.48 in 10.0 mi West 19.6 mph 31.1 mph N/A   Overcast
2:35 PM 50.0 °F - 35.6 °F 58% 29.48 in 10.0 mi WNW 17.3 mph 28.8 mph N/A   Overcast
2:55 PM 51.8 °F - 37.4 °F 58% 29.49 in 10.0 mi West 16.1 mph 31.1 mph N/A   Overcast
3:15 PM 50.0 °F - 35.6 °F 58% 29.50 in 10.0 mi West 20.7 mph 26.5 mph N/A   Overcast
3:35 PM 50.0 °F - 35.6 °F 58% 29.50 in 10.0 mi West 13.8 mph 26.5 mph N/A   Overcast
3:55 PM 50.0 °F - 35.6 °F 58% 29.52 in 10.0 mi West 16.1 mph 28.8 mph N/A   Overcast
4:15 PM 50.0 °F - 35.6 °F 58% 29.53 in 10.0 mi WNW 12.7 mph 32.2 mph N/A   Overcast
4:35 PM 50.0 °F - 33.8 °F 54% 29.53 in 10.0 mi West 18.4 mph 29.9 mph N/A   Overcast
4:55 PM 50.0 °F - 33.8 °F 54% 29.54 in 10.0 mi WNW 16.1 mph 26.5 mph N/A   Overcast
5:15 PM 48.2 °F - 35.6 °F 62% 29.55 in 10.0 mi West 20.7 mph 26.5 mph N/A Rain Light Rain
5:35 PM 50.0 °F - 33.8 °F 54% 29.56 in 10.0 mi WNW 17.3 mph 24.2 mph N/A   Overcast
5:55 PM 50.0 °F - 33.8 °F 54% 29.57 in 10.0 mi West 11.5 mph 23.0 mph N/A   Overcast
6:15 PM 50.0 °F - 33.8 °F 54% 29.57 in 10.0 mi West 12.7 mph 23.0 mph N/A   Overcast
6:35 PM 50.0 °F - 33.8 °F 54% 29.58 in 10.0 mi West 12.7 mph 21.9 mph N/A   Overcast
6:55 PM 50.0 °F - 33.8 °F 54% 29.58 in 10.0 mi WNW 16.1 mph 27.6 mph N/A   Overcast
7:15 PM 50.0 °F - 33.8 °F 54% 29.59 in 10.0 mi West 15.0 mph 20.7 mph N/A   Overcast
7:35 PM 50.0 °F - 32.0 °F 50% 29.60 in 10.0 mi West 19.6 mph 28.8 mph N/A   Overcast
8:15 PM 50.0 °F - 32.0 °F 50% 29.61 in 10.0 mi West 19.6 mph 26.5 mph N/A   Overcast
8:35 PM 48.2 °F - 32.0 °F 54% 29.62 in 10.0 mi West 17.3 mph 29.9 mph N/A   Overcast
8:55 PM 48.2 °F - 32.0 °F 54% 29.62 in 10.0 mi West 15.0 mph 26.5 mph N/A   Overcast
9:15 PM 48.2 °F - 33.8 °F 58% 29.62 in 10.0 mi West 16.1 mph 25.3 mph N/A   Overcast
9:35 PM 48.2 °F - 33.8 °F 58% 29.62 in 10.0 mi West 16.1 mph 24.2 mph N/A   Mostly Cloudy
9:55 PM 48.2 °F - 33.8 °F 58% 29.62 in 10.0 mi West 16.1 mph 24.2 mph N/A   Clear
10:15 PM 48.2 °F - 33.8 °F 58% 29.62 in 10.0 mi West 16.1 mph 23.0 mph N/A   Clear
10:55 PM 48.2 °F - 33.8 °F 58% 29.62 in 10.0 mi West 15.0 mph 23.0 mph N/A   Clear
11:14 PM 48.2 °F - 33.8 °F 58% 29.62 in 10.0 mi West 12.7 mph 21.9 mph N/A   Clear
11:35 PM 48.2 °F - 33.8 °F 58% 29.63 in 10.0 mi West 15.0 mph 24.2 mph N/A   Clear